Weather History for Wichita Jabara, KS

Change the Weather History Date:

Wednesday, September 11, 2013

  Actual Average (KICT) Record (KICT)
Temperature  
Mean Temperature 81 °F 73 °F  
Max Temperature 91 °F 85 °F 106 °F (2000)
Min Temperature 71 °F 62 °F 42 °F (1959)
Degree Days  
Heating Degree Days 0 1  
Month to date heating degree days 1  
Since 1 July heating degree days 2  
Cooling Degree Days 16 9  
Month to date cooling degree days 114  
Year to date cooling degree days 1541  
Growing Degree Days 31 (Base 50)    
Moisture  
Dew Point 62 °F    
Average Humidity 54    
Maximum Humidity 70    
Minimum Humidity 36    
Precipitation  
Precipitation 0.00 in 0.10 in 1.72 in (2003)
Month to date precipitation 1.19  
Year to date precipitation 25.28  
Snow  
Snow 0.00 in 0.00 in 0.00 in (2007)
Month to date snowfall 0.0  
Since 1 July snowfall 0.0  
Since 1 September snowfall 0.0  
Snow Depth -    
Sea Level Pressure  
Sea Level Pressure 30.06 in    
Wind  
Wind Speed 8 mph (South)    
Max Wind Speed 12 mph    
Max Gust Speed 17 mph    
Visibility 10 miles    
Events      
T = Trace of Precipitation, MM = Missing Value Source: NWS Daily Summary

Daily Weather History Graph

Daily Weather History Graph

Search for Another Location

Airport:

Trip Planner

Search our weather history database for the weather conditions in past years. The results will help you decide how hot, cold, wet, or windy it might be!

Date:

Astronomy

Sep. 11, 2013 Rise Set
Actual Time 7:07 AM CDT 7:42 PM CDT
Civil Twilight 6:41 AM CDT 8:08 PM CDT
Nautical Twilight 6:10 AM CDT 8:39 PM CDT
Astronomical Twilight 5:38 AM CDT 9:11 PM CDT
Moon 1:30 PM CDT (9/11) 11:46 PM CDT (9/11)
Length of Visible Light 13h 27m
Length of Day
12h 34m
Waxing Crescent, 39% of the Moon is Illuminated
Sep 11
Waxing Crescent
Sep 12
First Quarter
Sep 19
Full
Sep 26
Last Quarter
Oct 4
New

Hourly Weather History & Observations

Time (CDT) Temp. Heat Index Dew Point Humidity Pressure Visibility Wind Dir Wind Speed Gust Speed Precip Events Conditions
12:54 AM 73.0 °F - 59.0 °F 61% 30.05 in 10.0 mi South 6.9 mph - N/A   Clear
1:54 AM 72.0 °F - 60.1 °F 66% 30.06 in 10.0 mi South 6.9 mph - N/A   Clear
2:54 AM 75.0 °F - 60.1 °F 60% 30.05 in 10.0 mi South 8.1 mph - N/A   Clear
3:54 AM 75.0 °F - 61.0 °F 62% 30.06 in 10.0 mi South 8.1 mph - N/A   Clear
4:54 AM 73.0 °F - 61.0 °F 66% 30.06 in 10.0 mi South 8.1 mph - N/A   Clear
5:54 AM 73.0 °F - 60.1 °F 64% 30.07 in 10.0 mi South 8.1 mph - N/A   Clear
6:54 AM 72.0 °F - 60.1 °F 66% 30.08 in 10.0 mi South 5.8 mph - N/A   Clear
7:54 AM 71.1 °F - 61.0 °F 70% 30.10 in 10.0 mi Calm Calm - N/A   Scattered Clouds
8:54 AM 75.9 °F - 62.1 °F 62% 30.10 in 10.0 mi South 5.8 mph - N/A   Clear
9:54 AM 80.1 °F 81.5 °F 63.0 °F 56% 30.11 in 10.0 mi SSW 6.9 mph - N/A   Clear
10:54 AM 84.0 °F 85.8 °F 64.9 °F 53% 30.10 in 10.0 mi SW 8.1 mph - N/A   Clear
11:54 AM 87.1 °F 89.2 °F 66.0 °F 49% 30.10 in 10.0 mi SW 8.1 mph - N/A   Clear
12:54 PM 90.0 °F 92.4 °F 66.0 °F 45% 30.09 in 10.0 mi SSW 9.2 mph - N/A   Clear
1:54 PM 91.0 °F 92.6 °F 64.0 °F 41% 30.07 in 10.0 mi SSW 11.5 mph - N/A   Partly Cloudy
2:54 PM 91.9 °F 93.3 °F 64.0 °F 39% 30.05 in 10.0 mi South 10.4 mph - N/A   Clear
3:54 PM 91.9 °F 94.1 °F 64.9 °F 41% 30.02 in 10.0 mi South 10.4 mph - N/A   Scattered Clouds
4:54 PM 91.9 °F 92.9 °F 63.0 °F 38% 30.00 in 10.0 mi SSE 11.5 mph 17.3 mph N/A   Clear
5:54 PM 91.0 °F 90.9 °F 61.0 °F 36% 29.99 in 10.0 mi South 9.2 mph - N/A   Clear
6:54 PM 88.0 °F 87.9 °F 61.0 °F 40% 30.00 in 10.0 mi South 8.1 mph - N/A   Clear
7:54 PM 82.9 °F 83.3 °F 61.0 °F 47% 30.02 in 10.0 mi SSE 6.9 mph - N/A   Clear
8:54 PM 80.1 °F 81.2 °F 62.1 °F 54% 30.04 in 10.0 mi SSE 5.8 mph - N/A   Clear
9:54 PM 80.1 °F 81.2 °F 62.1 °F 54% 30.05 in 10.0 mi SSE 6.9 mph - N/A   Clear
10:54 PM 78.1 °F - 62.1 °F 58% 30.05 in 10.0 mi South 8.1 mph - N/A   Clear
11:54 PM 78.1 °F - 63.0 °F 60% 30.05 in 10.0 mi NW 8.1 mph - N/A   Mostly Cloudy